Weather History for KEAU - November, 2012

Change the Weather History Date:

Sunday, November 11, 2012

  Actual Average Record
Temperature  
Mean Temperature 47 °F 36 °F  
Max Temperature 67 °F 44 °F 67 °F (2012)
Min Temperature 26 °F 27 °F 0 °F (1986)
Degree Days  
Heating Degree Days 18 29  
Month to date heating degree days 259 294  
Since 1 July heating degree days 1112 1078  
Cooling Degree Days 0 0  
Month to date cooling degree days 0 0  
Year to date cooling degree days 830 579  
Moisture  
Dew Point 36 °F    
Average Humidity 72    
Maximum Humidity 92    
Minimum Humidity 52    
Precipitation  
Precipitation 0.47 in 0.06 in 1.12 in (1940)
Month to date precipitation 0.70 0.70  
Year to date precipitation 22.41 28.84  
Snow  
Snow T in 0.20 in 2.00 in (1940)
Month to date snowfall 0.8 1.3  
Since 1 July snowfall 0.8 1.7  
Since 1 September snowfall 0.8 1.7  
Snow Depth 0.00 in    
Sea Level Pressure  
Sea Level Pressure 29.71 in    
Wind  
Wind Speed 12 mph (West)    
Max Wind Speed 26 mph    
Max Gust Speed 37 mph    
Visibility 8 miles    
Events Rain    
T = Trace of Precipitation, MM = Missing Value Source: NWS Daily Summary

Daily Weather History Graph

Daily Weather History Graph

Search for Another Location

Airport or City:

Trip Planner

Search our weather history database for the weather conditions in past years. The results will help you decide how hot, cold, wet, or windy it might be!

Date:

Astronomy

Nov. 11, 2012 Rise Set
Actual Time 6:58 AM CST 4:41 PM CST
Civil Twilight 6:27 AM CST 5:12 PM CST
Nautical Twilight 5:51 AM CST 5:47 PM CST
Astronomical Twilight 5:17 AM CST 6:22 PM CST
Moon 4:07 AM CST (11/11) 3:08 PM CST (11/11)
Length of Visible Light 10h 45m
Length of Day
9h 42m
Waning Crescent, 7% of the Moon is Illuminated
Nov 11
Waning Crescent
Nov 13
New
Nov 20
First Quarter
Nov 28
Full
Dec 6
Last Quarter

Hourly Weather History & Observations

Time (CST) Temp. Windchill Dew Point Humidity Pressure Visibility Wind Dir Wind Speed Gust Speed Precip Events Conditions
12:56 AM 66.9 °F - 48.9 °F 52% 29.58 in 10.0 mi SSW 17.3 mph 32.2 mph N/A   Overcast
1:56 AM 64.9 °F - 50.0 °F 58% 29.60 in 10.0 mi SW 13.8 mph 26.5 mph N/A   Mostly Cloudy
2:56 AM 63.0 °F - 50.0 °F 63% 29.58 in 10.0 mi South 12.7 mph - N/A   Overcast
3:56 AM 62.1 °F - 50.0 °F 65% 29.60 in 10.0 mi South 11.5 mph - 0.00 in   Overcast
4:56 AM 62.1 °F - 48.9 °F 62% 29.60 in 10.0 mi SSW 11.5 mph - N/A   Mostly Cloudy
5:56 AM 63.0 °F - 48.9 °F 60% 29.58 in 10.0 mi South 16.1 mph 21.9 mph N/A   Overcast
6:56 AM 61.0 °F - 51.1 °F 70% 29.59 in 10.0 mi SSW 9.2 mph - 0.00 in   Overcast
7:13 AM 57.2 °F - 50.0 °F 77% 29.61 in 10.0 mi West 13.8 mph 20.7 mph N/A   Overcast
8:56 AM 46.0 °F 41.0 °F 44.1 °F 93% 29.66 in 3.0 mi WSW 10.4 mph - 0.05 in Rain Light Rain
9:02 AM 46.4 °F 42.4 °F 44.6 °F 93% 29.66 in 2.5 mi WSW 8.1 mph - 0.02 in Rain Rain
9:29 AM 44.6 °F 38.1 °F 42.8 °F 93% 29.69 in 3.0 mi West 13.8 mph 21.9 mph 0.12 in Rain Rain
9:44 AM 42.8 °F 36.2 °F 41.0 °F 93% 29.70 in 2.5 mi West 12.7 mph 20.7 mph 0.18 in Rain Heavy Rain
9:48 AM 42.8 °F 37.0 °F 39.2 °F 87% 29.70 in 3.0 mi West 10.4 mph 20.7 mph 0.20 in Rain Rain
9:56 AM 42.1 °F 35.7 °F 39.0 °F 89% 29.70 in 4.0 mi West 11.5 mph 20.7 mph 0.21 in Rain Rain
10:16 AM 41.0 °F 35.8 °F 39.2 °F 93% 29.69 in 5.0 mi West 8.1 mph - 0.05 in Rain Rain
10:47 AM 39.2 °F 33.6 °F 37.4 °F 93% 29.69 in 9.0 mi WNW 8.1 mph - 0.07 in Rain Light Rain
10:56 AM 39.9 °F 34.5 °F 37.9 °F 93% 29.70 in 10.0 mi West 8.1 mph - 0.08 in Rain Light Rain
11:04 AM 39.2 °F 33.0 °F 37.4 °F 93% 29.70 in 7.0 mi West 9.2 mph - 0.01 in Rain Light Rain
11:47 AM 39.2 °F 32.5 °F 37.4 °F 93% 29.68 in 9.0 mi WNW 10.4 mph - 0.06 in Rain Light Rain
11:56 AM 39.0 °F 32.8 °F 36.0 °F 89% 29.70 in 9.0 mi West 9.2 mph - 0.07 in Rain Light Rain
12:06 PM 39.2 °F 32.5 °F 37.4 °F 93% 29.70 in 9.0 mi West 10.4 mph - 0.01 in Rain Light Rain
12:17 PM 37.4 °F 28.2 °F 35.6 °F 93% 29.71 in 9.0 mi West 16.1 mph 23.0 mph 0.01 in Rain Light Rain
12:41 PM 37.4 °F 32.8 °F 33.8 °F 87% 29.68 in 6.0 mi WNW 5.8 mph - 0.05 in Rain Rain
12:56 PM 36.0 °F 27.5 °F 34.0 °F 93% 29.70 in 10.0 mi West 12.7 mph 18.4 mph 0.06 in Rain Light Rain
1:07 PM 35.6 °F 27.5 °F 33.8 °F 93% 29.70 in 10.0 mi West 11.5 mph - 0.00 in Rain Light Rain
1:56 PM 35.1 °F 27.4 °F 32.0 °F 89% 29.72 in 10.0 mi WNW 10.4 mph - 0.00 in   Overcast
2:08 PM 33.8 °F 27.0 °F 32.0 °F 93% 29.70 in 8.0 mi West 8.1 mph 17.3 mph 0.00 in   Overcast
2:56 PM 33.1 °F 25.5 °F 30.9 °F 92% 29.72 in 6.0 mi West 9.2 mph - 0.00 in   Overcast
3:56 PM 32.0 °F 24.2 °F 30.0 °F 92% 29.75 in 5.0 mi WNW 9.2 mph - N/A   Overcast
4:49 PM 32.0 °F 23.6 °F 26.6 °F 80% 29.74 in 10.0 mi West 10.4 mph - N/A   Overcast
4:56 PM 32.0 °F 22.1 °F 27.0 °F 82% 29.76 in 10.0 mi West 13.8 mph - N/A   Overcast
5:56 PM 30.9 °F 20.7 °F 25.0 °F 79% 29.82 in 10.0 mi West 13.8 mph 25.3 mph N/A   Overcast
6:56 PM 28.9 °F 16.9 °F 23.0 °F 78% 29.82 in 10.0 mi WNW 17.3 mph 24.2 mph N/A   Overcast
7:56 PM 28.0 °F 17.0 °F 21.0 °F 75% 29.85 in 10.0 mi West 13.8 mph 21.9 mph N/A   Overcast
8:56 PM 28.0 °F 16.5 °F 19.0 °F 69% 29.90 in 10.0 mi West 15.0 mph - N/A   Overcast
9:56 PM 27.0 °F 14.7 °F 18.0 °F 69% 29.91 in 10.0 mi West 16.1 mph 21.9 mph N/A   Overcast
10:56 PM 27.0 °F 15.6 °F 17.1 °F 66% 29.91 in 10.0 mi WSW 13.8 mph 20.7 mph N/A   Overcast
11:56 PM 26.1 °F 15.0 °F 15.1 °F 63% 29.93 in 10.0 mi WSW 12.7 mph - N/A   Overcast